World > North America > United States > Wyoming > Gas Hills

Gas Hills, WY Hourly Weather Conditions

Feedback E-mail the Weather

Quick WX

Gas Hills, WY Weather Maps

°F °C°F °C
Gas Hills Weather Map
UTC Time: 12/6/2022, 23:06
Your Time:

Gas Hills, WY Regional Weather

Expires:202212062300;;417352
ASUS45 KCYS 062210
RWRWY 

WYOMING REGIONAL WEATHER ROUNDUP
NATIONAL WEATHER SERVICE CHEYENNE WY
300 PM MST TUE DEC 06 2022

NOTE:  "FAIR" INDICATES FEW OR NO CLOUDS BELOW 12,000 FEET
WITH NO SIGNIFICANT WEATHER AND/OR OBSTRUCTIONS TO VISIBILITY.


WYZ014>020-022>026-101>103-062300-
...CENTRAL WYOMING...
  
CITY           SKY/WX    TMP DP  RH WIND       PRES   REMARKS
BIG PINEY      MOSUNNY   27  10  49 NW8       29.96S WCI  19          
PINEDALE       CLOUDY    27  18  69 NW6       29.97S WCI  20          
DUBOIS         CLOUDY    27  12  54 NW24G31   29.84S WCI  12          
LANDER         SUNNY     35  14  42 N7        29.83R WCI  29          
RIVERTON       SUNNY     35  14  42 SW7       29.83S WCI  29          
CASPER         SUNNY     37  16  42 SW21      29.83S WCI  26          
DOUGLAS        SUNNY     39  15  37 W23G35    29.82R WCI  28          

$$

SKY/WX - Weather  TMP - Temperature  DP - Dew Point  RH - Humidity
WIND - Wind Direction/Speed PRES - Barometric Pressure VSB - Visibility
WCI - Wind Chill Index E13G22 Wind - East Wind 13 mph/Gusts of 22 mph

Trending Headlines

Trending Entertainment Headlines

Gas Hills Radar Loop

Use the map search tool if you want to place a location marker on the radar map...

Gas Hills Quick Facts

National Two Day Weather Forecast


E-mail the Gas Hills Weather Forecast

Voice your opinion or tell us about page issues...